Volver al catálogo

KUIPER-00300

ActivoComunicacionesLEO
NORAD 68597·PAYLOAD·🇺🇸 United States

Lanzado Apr 4, 2026 desde Cape Canaveral Space Force Station

Loading…

Próximos Pases (próximas 24 horas)

TLE

ActualizadoSource: CelesTrak SupGP

Época: Sep 14, 2026, 18:52 UTC

1 68597C 26072AA  26257.78619213 -.00001109  00000+0 -14511-3 0  2575
2 68597  51.9012 149.4546 0000851 105.4142 107.2897 14.79935295    18

Sigue KUIPER-00300 en tiempo real con AllMySat

Download on the App Store